Regional Weather Roundup
Issued by NWS

Home | Current Version | Previous Version | Graphics & Text | Print | Product List | Glossary On
Versions: 1 2 3 4 5 6 7 8 9 10 11 12 13 14 15 16 17 18 19 20 21 22 23 24 25 26 27 28 29 30 31 32 33 34 35 36 37 38 39 40 41 42 43 44 45 46 47 48 49 50
000
ASUS43 KLOT 271506
RWRIL

ILLINOIS REGIONAL WEATHER ROUNDUP
NATIONAL WEATHER SERVICE CHICAGO/ROMEOVILLE IL
900 AM CST TUE JAN 27 2015

NOTE: "FAIR" INDICATES FEW OR NO CLOUDS BELOW 12,000 FEET WITH NO
SIGNIFICANT WEATHER AND/OR OBSTRUCTIONS TO VISIBILITY.

* THESE STATIONS ARE NOT UNDER NWS QUALITY CONTROL. THEY ALSO MAY NOT
  REPORT WEATHER SUCH AS PRECIPITATION OR FOG.

ILZ001-002-007-009-015-016-024-271600-
NORTHWEST ILLINOIS

CITY           SKY/WX    TMP DP  RH WIND       PRES   REMARKS
MOLINE         CLOUDY    30  24  78 N8        30.14R WCI  22
STERLING*      CLOUDY    27  21  80 NE10      30.13R WCI  17
SAVANNA*       CLOUDY    28  23  81 N10       30.15R WCI  19
$$

ILZ003-004-008-010-011-017-018-271600-
NORTH CENTRAL ILLINOIS

CITY           SKY/WX    TMP DP  RH WIND       PRES   REMARKS
ROCKFORD       CLOUDY    27  23  85 N9        30.15R FOG     WCI  18
FREEPORT*      CLOUDY    25  22  87 NE10      30.15R FOG     WCI  15
ROCHELLE*      CLOUDY    27  24  89 N9        30.13R FOG     WCI  17
DE KALB*       CLOUDY    25  23  91 N9        30.12R FOG     WCI  16
PERU*          CLOUDY    29  27  92 N8        30.13R FOG     WCI  21
$$

ILZ005-006-012>014-019>023-271600-
NORTHEAST ILLINOIS

CITY           SKY/WX    TMP DP  RH WIND       PRES   REMARKS
CHICAGO-OHARE  CLOUDY    28  20  71 NE10      30.11R WCI  19
CHICAGO-MIDWAY CLOUDY    30  22  72 E12       30.11R WCI  20
AURORA         CLOUDY    28  24  85 NE9       30.12R FOG     WCI  19
LANSING*       CLOUDY    27  22  80 E6        30.11R WCI  21
JOLIET*        CLOUDY    28  26  89 NE3       30.11R FOG
WAUKEGAN       CLOUDY    28  20  71 N9        30.12R WCI  19
DUPAGE AIRPORT CLOUDY    28  25  88 N7        30.10R FOG     WCI  21
KANKAKEE*      CLOUDY    27  26  96 NE7       30.11R FOG     WCI  19
WHEELING       CLOUDY    28  20  71 NE5       30.14R WCI  23
MORRIS*        CLOUDY    29  28  96 N3        30.11R FOG
ROMEOVILLE*    CLOUDY    28  27  93 E7        30.11R FOG     WCI  21
NORTHERLY ISL    N/A     28  21  75 NE13        N/A  WCI  18
$$

LMZ740>746-271600-
SOUTHERN LAKE MICHIGAN

STATION/POSITION SKY/WX   TEMP    WIND        PRES    VSBY  WAVE
                          AIR SEA DIR/SP/G                  HT/PER
                          (F)     (DEG/KT/KT) (MB)    (MI)  (FT/S)
WAUKEGAN HARBOR            28      40/ 13/ 16   N/A
HARRISON CRIB              28      50/ 12/ 14   N/A
BURNHAM HARBOR             28      40/  9/ 12   N/A
CALUMET HARBOR             28      50/  8/ 11   N/A
MICHIGAN CITY              24      60/  5/  7   N/A
$$

ILZ025>027-034>036-040-047-049-050-058-095>099-271600-
WEST-CENTRAL ILLINOIS

CITY           SKY/WX    TMP DP  RH WIND       PRES   REMARKS
QUINCY         SUNNY     35  31  85 NW7       30.13R WCI  29
GALESBURG*     CLOUDY    29  27  91 N13       30.14R WCI  19
MACOMB*        MOSUNNY   33  32  95 N6        30.15R WCI  28
JACKSONVILLE*  CLOUDY    36  34  90 NW7       30.12R WCI  31
PITTSFIELD*    SUNNY     36  33  88 NW6       30.13R WCI  31
$$

ILZ028>032-037-038-041>044-048-051>054-059>061-271600-
CENTRAL ILLINOIS

CITY           SKY/WX    TMP DP  RH WIND       PRES   REMARKS
PONTIAC        CLOUDY    30  29  96 N6        30.11R FOG     WCI  24
BLOOMINGTON    CLOUDY    30  28  92 N8        30.10R FOG     WCI  22
DECATUR        CLOUDY    32  30  92 N8        30.09R FOG     WCI  25
PEORIA         CLOUDY    31  26  82 N7        30.13R HAZE    WCI  24
LACON*         CLOUDY    28  25  88 N6        30.13R FOG     WCI  22
LINCOLN*       CLOUDY    32  30  92 N6        30.12R FOG     WCI  27
SPRINGFIELD    CLOUDY    34  29  82 N5        30.11R HAZE    WCI  30
TAYLORVILLE    CLOUDY    32  30  93 N7        30.09R FOG     WCI  26
$$

ILZ033-039-045-046-055>057-062-063-271600-
EAST-CENTRAL ILLINOIS

CITY           SKY/WX    TMP DP  RH WIND       PRES   REMARKS
CHAMPAIGN      CLOUDY    31  28  89 NE8       30.08R WCI  23
DANVILLE*      CLOUDY    28  27  96 NE7       30.06R FOG     WCI  20
RANTOUL*       CLOUDY    30  29  95 NE9       30.09R FOG     WCI  22
MATTOON        CLOUDY    31  28  89 N10       30.06R WCI  22
PARIS*         CLOUDY    30  30 100 CALM      30.08R
$$

ILZ079-100>102-271600-
SOUTHWEST ILLINOIS

CITY           SKY/WX    TMP DP  RH WIND       PRES   REMARKS
ALTON          SUNNY     37  34  87 NW6       30.11  WCI  33
BELLEVILLE     MOSUNNY   38  38  99 NW9       30.11R WCI  32
CAHOKIA*       SUNNY     40  35  83 N8        30.12R
SPARTA*        MOSUNNY   37  34  87 NW6       30.11R WCI  33
$$

ILZ064>066-069>071-074>076-080>082-084>086-088>090-092>094-271600-
SOUTH-CENTRAL ILLINOIS

CITY           SKY/WX    TMP DP  RH WIND       PRES   REMARKS
CARBONDALE     PTSUNNY   37  32  82 N7        30.10R WCI  32
CAIRO*         SUNNY     40  37  87 W3        30.11R
EFFINGHAM*     CLOUDY    33  29  85 NW6       30.09R FOG     WCI  27
MARION         SUNNY     37  34  87 NW6       30.10R WCI  33
MT. VERNON     MOSUNNY   36  28  75 N5        30.09R WCI  32
CENTRALIA*     SUNNY     34  31  87 N6        30.09R FOG     WCI  29
SALEM*         SUNNY     35  31  85 N6        30.08S FOG     WCI  30
METROPOLIS*    PTSUNNY   38  37  99 N7        30.09R FOG     WCI  32
$$

ILZ067-068-072-073-078-083-087-091-271600-
SOUTHEAST ILLINOIS

CITY           SKY/WX    TMP DP  RH WIND       PRES   REMARKS
LAWRENCEVILLE  FOG       31  31 100 NE6       30.08R VSB 1/2 WCI  25
FLORA*         PTSUNNY   33  30  88 N9        30.09R FOG     WCI  26
FAIRFIELD*     CLOUDY    34  31  90 N6        30.07R FOG     WCI  29
HARRISBURG*    SUNNY     35  33  91 N9        30.09R FOG     WCI  28
ROBINSON*      CLOUDY    31  31 100 NE5       30.09R FOG     WCI  26
CARMI*         CLOUDY    36  34  93 N8        30.07R WCI  29
$$

ABBREVIATIONS USED IN REMARKS
   TC - TEMPERATURE IN CELSIUS
  WCI - WIND CHILL INDEX
   HX - HEAT INDEX
  VSB - VISIBILITY
$$




USA.gov is the U.S. government's official web portal to all federal, state and local government web resources and services.